Theta_e
330 331 336 342 342 338 338 341 346 348 348 352 356 349 343 340 328 325 340 350 349 353 356 355 356 356 356 358 357 356 356 354 353 353 352 353 352 352 353 353 352 352 352 352 349 347 348 349 350 352 353 354 354 354 355 356 356 356 354 354 355 356 356 356 356 355 354 355 356 357 358 358 358 358 357 356 356 357 357 356 355 355 354 354 354 353 354
327 329 336 340 341 338 336 337 341 347 349 349 350 351 350 348 344 344 349 353 357 358 354 355 355 352 354 356 354 356 355 353 353 352 353 353 351 350 351 352 353 352 351 349 346 347 348 348 349 350 350 352 353 353 354 354 354 355 354 354 354 355 355 356 356 355 354 355 355 357 358 357 358 358 356 356 356 356 357 356 355 354 353 353 354 353 353
330 333 334 335 339 340 337 335 337 345 349 348 350 350 350 351 352 351 351 355 360 357 353 355 353 351 354 355 355 357 355 353 353 352 352 352 350 349 349 350 352 352 350 347 345 346 348 347 348 348 348 350 351 351 352 352 353 354 353 353 353 353 354 354 356 356 355 356 356 356 357 357 357 357 356 356 356 356 357 356 355 354 353 353 354 354 353
333 337 333 335 343 340 339 339 336 342 350 349 348 350 350 352 353 350 352 356 358 355 353 354 353 353 355 355 356 357 354 353 353 353 354 353 350 350 349 350 351 351 350 348 345 346 346 346 347 347 348 350 350 350 351 351 353 353 352 352 352 353 354 354 355 356 356 356 356 356 356 356 358 358 356 356 356 356 356 356 355 355 354 354 355 354 353
333 338 336 342 344 333 337 342 335 341 351 348 346 350 348 349 351 353 355 355 354 354 355 355 355 354 355 356 355 355 354 354 353 352 353 352 351 351 351 351 352 351 349 346 345 346 346 346 347 347 348 349 349 350 350 350 351 351 351 352 352 352 354 353 354 356 355 356 356 356 356 357 358 357 356 356 356 356 356 356 355 355 354 354 354 353 353
329 337 339 337 332 328 336 344 338 340 348 347 348 350 346 347 351 353 355 355 354 354 354 355 355 353 352 352 349 348 350 351 351 350 348 348 350 350 349 349 349 348 346 346 345 346 345 345 346 347 347 348 348 349 350 350 351 350 350 351 351 352 353 353 354 355 355 354 354 355 356 356 356 356 355 356 356 355 355 354 354 354 353 353 353 353 353
329 339 339 327 327 336 342 342 338 340 345 345 347 347 344 346 349 351 355 355 353 353 352 351 350 349 347 345 344 344 344 346 347 347 346 347 347 347 346 347 346 344 345 346 346 346 346 345 345 345 346 347 348 348 349 349 350 350 350 350 350 351 352 352 353 354 354 353 351 351 354 354 354 354 353 353 353 353 353 353 352 352 352 352 352 352 352
326 333 332 326 331 341 343 340 337 339 343 344 345 347 346 345 346 350 354 354 351 349 347 346 347 346 344 343 344 343 342 343 344 343 344 346 344 342 343 343 343 341 342 345 346 346 346 345 345 345 345 346 348 347 348 349 350 350 350 350 350 351 351 350 350 350 351 350 349 349 351 352 353 353 352 352 351 351 352 352 351 351 351 351 351 350 350
328 335 334 334 337 338 338 339 335 335 338 337 340 347 349 346 346 348 351 352 349 346 346 348 347 345 346 347 345 341 339 339 340 340 341 342 341 340 339 339 338 339 340 343 346 347 347 346 345 346 346 346 347 347 347 348 348 348 348 348 350 350 350 350 350 349 349 349 349 349 349 350 352 352 352 352 350 348 349 350 351 351 351 351 350 349 348
336 347 343 340 343 341 341 340 335 333 335 332 335 344 350 348 346 345 347 349 347 346 349 351 347 348 356 357 347 340 339 337 337 338 338 339 339 339 339 338 337 338 340 342 344 346 347 346 346 346 346 346 346 346 346 346 346 345 345 346 347 347 347 348 348 348 347 348 348 348 347 348 351 351 350 349 347 346 348 349 350 350 349 349 348 347 347
337 347 344 342 343 342 344 344 338 335 336 334 334 340 347 350 347 344 345 346 346 348 350 350 349 355 363 361 347 339 338 337 336 337 337 337 338 338 338 339 338 338 340 340 342 344 345 346 345 345 345 345 345 345 346 346 346 346 345 345 346 345 345 346 346 347 347 347 348 348 347 348 349 349 348 347 347 348 348 349 349 348 347 347 345 345 346
343 346 342 339 338 338 339 341 340 337 335 334 336 340 343 347 347 344 344 344 345 348 348 348 351 353 355 354 345 339 337 336 336 337 337 337 338 337 338 338 338 339 339 339 340 341 342 343 344 344 344 345 345 345 345 345 346 345 345 345 345 344 344 344 345 346 346 346 348 348 347 346 346 348 348 347 346 347 348 348 348 346 345 345 344 343 343
346 346 340 334 336 338 338 338 340 339 333 332 340 344 342 345 347 343 342 343 344 346 348 347 347 344 342 342 341 338 336 335 335 336 337 337 337 337 337 337 337 338 338 338 338 339 340 341 343 344 345 345 345 345 345 345 345 344 345 345 345 345 344 344 345 345 345 346 347 347 346 346 346 347 348 348 346 347 348 347 347 345 343 342 341 338 337
338 345 344 335 332 334 336 337 338 335 332 335 343 342 338 342 347 342 340 342 342 343 345 344 342 340 338 338 338 337 336 336 335 335 335 335 335 335 335 336 336 336 336 336 337 338 339 340 340 342 343 343 343 343 343 344 345 345 345 346 347 347 346 346 346 345 345 345 345 345 346 346 345 346 346 346 346 346 346 345 344 342 339 337 336 333 332
335 342 340 331 329 331 334 337 337 334 334 338 343 342 339 339 343 342 341 342 341 342 343 341 339 340 339 338 337 336 335 335 333 331 331 332 333 333 334 334 334 334 334 334 335 336 337 338 339 340 340 340 340 341 341 341 342 344 344 345 345 346 346 346 345 344 343 344 343 344 345 345 344 344 344 344 344 343 342 341 338 335 333 332 332 331 330
339 344 340 335 336 337 336 336 336 337 337 335 337 344 344 340 339 341 341 340 339 341 342 340 339 339 338 337 336 334 333 333 330 328 329 331 332 333 333 333 333 334 333 333 333 334 336 337 338 338 338 338 339 338 337 338 339 341 343 343 344 344 344 343 342 342 342 343 343 343 344 344 344 344 342 341 340 338 336 335 332 330 329 329 329 328 327
335 340 341 339 338 337 337 336 337 339 338 334 335 340 341 338 337 338 340 340 339 339 339 338 338 338 337 337 335 333 332 331 329 328 328 330 331 332 331 332 333 333 333 333 333 333 334 336 336 336 337 337 336 335 335 337 339 340 341 341 341 341 340 339 339 339 339 340 340 341 341 342 342 341 340 339 337 334 333 332 330 328 327 327 327 326 325
334 335 336 337 338 338 339 338 336 337 337 336 337 338 339 337 335 337 340 341 339 337 336 337 338 337 336 336 334 333 332 330 328 326 327 329 330 331 331 331 332 332 332 333 333 332 333 334 335 335 335 335 334 334 335 337 338 338 338 338 338 336 336 335 335 336 337 337 338 339 339 339 339 339 339 338 335 333 332 330 329 327 327 327 327 327 326
339 341 339 338 337 337 338 339 339 339 336 335 335 336 337 336 335 338 340 338 336 336 335 335 336 336 335 336 334 333 333 332 328 325 326 328 329 330 330 330 331 332 331 331 331 331 331 333 334 334 334 333 332 332 334 336 336 336 335 335 333 332 332 331 331 332 334 335 336 336 335 335 334 334 334 334 332 331 330 329 328 327 327 327 327 328 328
341 342 340 337 336 335 336 338 340 341 338 336 335 334 334 334 335 335 334 333 334 334 332 333 334 334 334 336 334 333 332 329 325 324 326 327 328 329 330 330 330 331 330 329 329 330 329 331 332 333 333 333 332 331 331 332 332 331 331 331 331 331 330 329 328 329 330 332 333 332 332 331 331 331 331 330 330 329 329 328 328 327 327 327 327 328 329
338 337 336 335 335 337 339 338 337 337 336 336 336 335 334 334 334 333 332 330 330 329 329 331 333 334 334 333 331 332 332 328 324 324 326 326 326 327 327 328 329 329 328 328 328 328 329 330 331 332 331 332 332 332 331 330 329 329 330 331 332 332 331 330 330 329 329 330 331 332 332 332 332 332 332 332 332 331 331 330 329 328 327 327 328 328 329
344 343 340 336 336 341 343 340 337 335 334 336 337 336 335 335 334 333 332 330 328 328 327 328 331 336 335 329 326 328 329 325 324 325 325 325 325 325 325 326 326 326 326 326 326 326 327 327 329 330 331 330 331 331 331 331 331 331 332 332 332 331 331 331 331 331 331 332 332 332 333 332 332 331 330 330 331 332 332 332 332 332 330 329 329 329 329
346 342 341 339 340 343 340 336 335 334 333 336 337 336 335 335 332 331 332 333 334 333 329 325 328 332 331 326 325 326 325 323 325 325 325 325 326 325 325 325 324 324 323 323 323 324 324 325 325 327 328 329 330 330 330 330 331 331 332 332 331 330 329 328 327 327 330 332 332 331 331 331 330 329 328 328 329 329 330 331 331 332 332 332 332 331 330
337 335 339 339 340 339 335 334 336 334 331 334 336 335 334 333 331 329 331 333 334 336 333 328 326 327 325 324 325 326 324 324 325 325 325 325 326 326 326 325 324 323 322 323 324 324 325 325 325 325 324 325 326 327 328 329 329 329 330 330 331 330 329 328 325 324 327 330 330 330 329 329 329 328 327 326 326 325 326 326 327 327 328 330 331 332 331
330 333 336 335 335 336 333 333 335 332 330 332 334 334 333 332 329 328 329 330 329 331 333 329 326 325 325 324 325 325 325 325 325 325 325 325 325 325 325 324 323 323 323 325 326 326 327 327 327 326 325 324 324 325 326 327 328 328 328 329 329 329 328 329 327 326 327 328 328 328 328 327 328 327 326 325 323 322 321 322 322 323 324 324 325 326 324
329 331 332 331 331 332 331 334 336 334 330 330 332 332 332 331 329 327 327 327 326 327 328 327 326 327 326 325 325 326 326 326 326 325 325 325 324 324 324 323 323 323 323 324 325 325 326 326 326 326 326 326 326 327 327 327 327 327 327 327 326 326 326 326 327 327 327 327 327 327 327 326 325 325 324 323 322 321 320 320 320 319 319 319 319 318 318
327 330 334 335 333 331 332 337 337 331 327 327 328 328 328 328 327 326 325 326 326 326 327 327 328 328 328 328 328 328 327 327 326 325 326 326 325 325 325 324 324 323 323 323 323 323 324 325 325 325 325 325 326 327 327 327 327 326 326 326 326 325 325 325 325 326 327 327 326 325 325 326 325 324 322 321 321 321 320 319 318 318 317 317 317 317 317
329 332 337 341 340 335 332 330 328 325 324 324 324 324 325 325 325 326 326 325 323 323 324 326 328 328 327 328 329 328 328 328 327 326 327 327 328 328 328 326 325 324 323 322 322 322 323 324 324 324 324 324 325 325 326 327 327 326 326 327 327 327 326 325 325 326 326 327 326 325 324 324 323 322 321 320 320 320 320 319 318 317 317 317 317 317 317
333 334 335 336 333 328 326 325 325 326 324 323 322 323 324 324 324 324 323 321 319 319 319 320 324 326 326 327 328 327 326 326 326 327 328 328 329 330 329 328 327 325 324 324 323 322 322 322 322 321 321 322 324 325 325 326 326 327 327 327 326 326 327 326 326 326 326 326 326 325 324 324 323 323 322 322 321 321 321 320 319 318 318 318 317 317 317
330 330 330 329 326 326 328 328 328 328 326 323 322 322 321 321 323 322 319 317 315 315 316 315 317 319 321 321 322 321 321 321 322 325 328 329 329 329 329 328 328 327 326 325 325 323 323 322 321 321 320 321 322 323 323 324 325 326 327 327 326 325 325 325 326 326 326 326 326 325 325 325 325 325 324 323 323 323 322 321 320 320 319 319 318 318 318
327 326 327 328 327 328 329 327 326 327 324 322 323 322 320 320 322 321 319 316 313 313 314 314 314 315 315 315 316 317 317 317 318 320 322 325 327 329 329 328 328 328 327 327 327 326 325 324 324 324 323 322 322 322 321 321 322 323 325 326 325 325 324 324 324 325 325 325 325 325 325 325 325 324 323 323 323 324 324 324 323 322 322 321 320 320 319
326 325 326 326 326 326 327 326 326 326 323 322 324 323 320 320 321 320 319 317 314 312 313 314 313 314 314 315 316 316 315 315 315 316 316 318 320 323 326 328 328 328 327 327 328 327 327 327 326 327 326 325 325 324 322 322 322 322 323 324 324 324 324 324 324 324 324 324 324 324 324 324 324 323 322 322 322 322 323 323 323 323 323 322 322 322 321
329 329 327 326 326 326 326 324 324 324 323 321 320 317 315 315 316 315 314 314 313 313 313 313 314 314 315 315 315 315 315 315 314 314 314 314 315 317 319 323 324 324 323 324 324 324 324 324 325 326 326 327 326 326 324 323 322 322 322 323 323 323 323 322 322 323 323 323 323 323 323 323 323 323 323 322 321 321 321 320 321 321 320 321 321 322 323
330 330 328 326 326 327 326 323 322 322 320 317 314 312 312 313 313 313 313 313 313 313 313 314 314 314 314 314 314 314 314 314 312 312 312 313 313 314 315 316 318 318 318 319 319 319 320 320 321 322 323 325 326 326 326 325 323 322 322 323 323 323 322 322 322 321 321 321 321 322 323 323 323 323 323 321 320 319 320 320 319 318 318 319 319 320 322
323 324 323 320 321 322 321 319 319 318 318 317 315 312 312 313 313 314 314 314 314 314 314 314 314 314 314 313 313 313 312 311 311 311 311 312 312 313 313 314 314 315 315 315 316 316 317 318 319 319 320 321 323 324 325 325 324 323 322 322 322 322 322 322 322 322 321 321 320 321 322 323 323 323 320 317 315 315 316 317 318 317 317 317 317 318 320
321 322 320 317 317 317 316 315 315 314 313 314 314 313 313 314 315 315 314 314 313 314 314 313 313 313 313 312 312 311 311 311 310 310 310 310 311 311 312 312 313 313 313 313 313 313 314 315 316 317 318 319 321 323 323 324 324 323 323 322 321 321 321 321 321 320 321 321 320 319 319 320 321 320 318 316 314 314 315 315 317 317 316 316 316 317 319
320 320 318 315 314 314 314 313 312 312 311 312 313 313 313 314 313 313 313 313 313 314 313 313 313 312 311 311 311 311 310 310 310 310 310 310 310 310 310 311 311 311 312 312 312 312 313 313 313 314 314 315 317 318 319 320 320 321 321 322 321 321 321 321 320 320 320 320 319 319 319 318 318 318 318 316 315 316 316 316 316 316 316 316 316 316 318
318 316 315 314 313 312 312 311 312 312 313 313 313 313 313 313 313 313 313 313 312 312 312 312 312 311 311 311 310 310 311 310 310 310 310 310 310 310 310 310 310 310 310 311 311 311 312 312 312 312 313 313 313 314 315 316 318 319 320 320 321 321 321 321 321 321 321 320 320 319 319 318 318 318 318 317 315 315 316 315 315 315 315 315 315 316 318
316 314 313 312 312 311 311 312 313 313 313 313 312 312 313 313 313 313 312 312 312 312 312 311 311 311 311 311 311 311 311 311 311 311 311 311 310 310 310 310 310 310 310 311 311 311 312 311 311 311 312 311 312 312 312 314 315 317 318 319 320 320 320 320 320 320 321 321 321 320 319 319 318 317 317 317 315 314 314 314 314 314 314 314 315 316 318
314 312 311 311 311 312 312 312 312 313 313 313 313 312 312 313 312 312 312 311 311 311 311 311 311 311 311 311 311 311 311 312 312 312 312 311 311 311 310 309 310 310 310 311 312 312 311 310 310 310 310 310 310 310 310 311 311 312 313 315 316 317 318 319 319 320 320 320 321 321 320 320 319 318 316 315 314 313 313 313 313 314 314 314 315 316 317
312 312 311 311 312 312 311 312 312 312 313 314 313 313 312 312 312 312 311 311 311 311 311 311 311 311 311 311 312 311 311 311 312 311 311 311 311 311 310 310 310 310 310 311 312 312 311 310 309 309 309 309 309 309 309 309 309 309 310 310 312 313 315 316 318 319 319 320 320 320 320 320 319 318 317 315 314 314 314 314 314 313 313 314 314 316 317
312 311 311 311 311 311 311 311 312 312 312 313 313 312 312 312 311 311 311 311 311 311 311 311 311 311 311 311 311 311 311 311 311 311 311 311 311 310 310 310 310 310 310 311 311 312 311 311 310 310 310 310 309 309 309 309 309 309 309 309 309 310 310 312 313 314 316 317 318 319 319 319 319 318 318 317 317 317 316 315 314 313 313 313 314 315 316
311 311 311 311 311 311 311 311 311 311 311 312 312 312 312 311 311 311 311 311 311 310 311 311 311 311 311 311 311 311 311 311 311 311 311 311 311 310 310 310 311 311 310 310 311 311 311 311 310 310 310 310 310 310 310 310 309 309 309 309 309 309 308 308 308 309 310 312 313 314 315 316 317 317 317 317 317 316 316 315 314 313 312 313 313 314 314
311 311 311 311 311 311 311 311 311 311 311 311 311 311 311 311 311 311 310 310 311 311 311 311 311 311 311 311 311 311 311 311 311 311 311 311 311 311 310 311 311 311 310 310 310 310 310 311 311 311 311 311 310 310 310 310 309 309 309 309 309 308 308 308 307 307 307 308 309 309 310 311 312 314 315 316 316 316 315 314 313 312 312 312 313 313 312
311 312 311 311 311 311 311 311 311 311 311 311 311 311 311 311 311 311 311 311 311 311 311 312 312 312 311 311 311 311 311 310 310 310 311 310 310 310 310 310 310 310 310 310 310 310 310 311 311 310 310 310 309 309 309 309 309 309 309 309 309 308 308 308 308 307 307 308 308 308 309 309 310 311 313 314 315 315 315 314 313 312 311 311 312 312 312
312 312 311 311 311 311 311 312 312 311 311 311 310 310 311 311 311 311 311 311 311 312 312 311 311 311 311 311 311 310 310 310 310 310 310 310 310 310 310 310 310 310 310 310 310 309 309 309 309 309 309 308 308 308 309 309 309 309 309 309 309 309 309 309 309 309 309 309 309 310 310 310 311 312 312 313 314 314 314 313 313 312 311 311 311 311 310
311 311 311 311 311 311 311 312 311 310 310 310 310 310 310 310 310 311 312 311 311 311 311 311 311 311 310 310 310 309 309 309 309 309 310 310 309 309 309 309 309 309 309 308 308 308 308 308 308 308 308 308 308 308 308 308 308 308 308 309 309 309 310 310 310 311 311 311 311 311 312 312 312 312 312 312 312 312 312 312 312 312 311 310 309 308 308
311 311 311 310 310 310 310 310 310 310 310 310 310 310 310 310 310 311 311 310 310 311 310 310 310 310 309 309 308 308 308 308 308 308 309 308 307 307 307 307 307 307 307 307 308 308 307 307 307 307 307 307 307 307 307 307 307 307 307 307 307 308 308 308 309 310 311 311 312 312 312 312 311 311 310 310 310 310 310 310 310 310 309 307 306 306 306
311 311 310 310 309 310 310 309 309 309 309 310 310 310 310 310 311 311 310 310 310 310 309 309 309 308 308 308 308 308 307 307 307 307 306 305 305 305 305 306 306 307 307 307 306 306 306 305 305 305 306 306 306 306 306 306 306 306 306 306 306 306 306 306 307 308 309 310 310 310 310 309 309 309 309 308 308 308 308 308 308 307 306 305 305 305 306
311 310 309 309 309 309 310 310 309 309 310 309 309 309 310 311 310 309 309 310 310 309 309 309 308 307 306 307 307 307 307 307 306 305 304 304 304 305 305 305 305 305 305 304 304 304 304 304 304 304 304 304 305 305 305 305 305 305 305 304 304 304 304 304 305 306 307 307 307 308 308 308 308 307 307 307 307 306 306 306 305 305 305 305 305 305 305
310 310 310 310 310 310 310 311 310 310 309 309 309 309 310 311 310 308 309 310 309 308 308 308 307 305 305 305 306 306 306 306 305 304 303 304 304 304 304 304 303 303 303 303 302 302 302 303 303 303 303 304 304 304 304 304 304 304 304 303 304 304 304 303 304 305 305 305 305 306 306 306 306 306 306 306 306 306 306 305 305 306 306 306 305 305 304
311 310 310 310 310 310 310 310 310 309 309 309 308 309 310 310 309 308 309 309 309 308 308 308 306 305 304 304 304 304 304 304 303 303 303 303 303 303 303 303 303 303 303 302 302 302 302 303 303 303 303 303 303 303 303 303 303 303 303 303 303 304 304 303 303 303 304 304 304 304 305 305 305 306 306 306 306 306 305 305 305 305 305 305 304 304 303
Wind_Speed
4 2 2 4 3 3 5 7 8 8 9 10 7 2 4 2 3 4 6 3 4 4 5 3 2 2 3 3 3 3 3 4 4 5 5 4 3 3 3 2 4 6 6 6 9 13 16 18 20 21 22 24 24 23 23 23 23 23 23 22 20 18 18 21 24 26 26 25 25 24 23 22 21 21 21 21 21 20 20 19 19 18 17 16 15 15 15
4 3 3 3 2 2 5 8 8 7 7 9 7 4 5 3 3 2 1 6 8 4 3 4 3 3 3 3 4 4 4 4 4 5 5 5 4 3 4 4 3 4 4 4 6 8 11 15 19 19 20 22 24 24 23 23 22 22 22 22 22 21 21 22 24 25 26 26 26 24 23 23 22 22 22 22 22 22 20 19 19 18 18 18 17 16 15
3 5 2 2 3 2 4 8 8 6 6 7 8 7 6 4 2 3 3 7 7 4 4 6 5 5 5 6 6 6 4 4 4 4 4 4 4 5 6 6 4 4 5 6 8 7 7 9 13 17 20 21 23 22 22 22 22 22 22 23 23 24 25 25 24 24 25 26 26 26 25 24 23 23 23 23 23 22 21 19 18 18 18 18 17 16 16
2 5 6 4 3 3 5 8 9 8 6 5 6 7 7 5 4 5 5 5 2 3 5 7 6 6 7 7 7 6 4 4 4 3 2 2 3 4 4 4 4 5 6 8 10 10 8 7 8 12 15 17 18 19 19 20 21 21 22 22 23 24 26 25 23 24 25 26 26 26 26 25 24 23 23 23 23 23 21 19 18 18 19 19 17 17 17
4 4 5 5 4 5 4 4 3 3 4 3 3 6 8 7 4 2 2 2 1 1 4 6 6 6 6 6 5 5 4 4 5 4 3 3 1 2 4 4 4 4 6 10 14 16 17 17 15 13 12 14 16 17 18 19 19 20 21 22 22 23 24 24 23 23 23 24 26 27 27 26 25 23 22 22 22 22 22 20 20 19 19 19 18 18 17
4 4 4 3 3 2 3 4 3 1 4 5 5 4 6 7 5 3 3 3 4 4 5 5 5 5 5 6 6 6 5 5 5 5 5 2 1 0 2 3 2 1 3 9 16 20 22 23 22 19 15 15 16 17 17 17 17 17 18 19 21 22 23 24 25 24 22 20 22 25 26 25 23 22 21 22 22 23 23 21 21 21 21 21 20 19 18
3 1 2 1 3 4 5 3 1 3 7 8 7 4 4 6 6 5 6 6 6 5 5 5 6 7 7 7 8 8 7 6 6 7 6 1 2 2 5 4 2 1 3 8 12 15 17 21 23 21 17 16 17 16 16 16 16 17 17 17 19 21 22 23 24 25 24 21 20 21 22 22 20 19 18 18 19 20 23 23 22 20 19 19 18 18 18
1 2 2 3 5 5 2 2 3 3 3 4 4 4 3 3 3 2 5 6 5 4 4 4 5 6 6 7 7 7 8 7 7 7 5 2 1 3 4 2 1 2 2 5 8 10 13 18 22 23 20 20 19 17 16 17 18 19 19 19 19 20 21 22 22 23 22 20 17 17 18 19 20 20 19 18 15 15 18 21 22 20 19 17 16 16 16
1 2 1 1 2 2 1 2 2 1 1 1 1 1 3 4 3 1 3 6 5 3 1 1 1 2 3 5 6 7 8 8 7 6 5 5 4 3 2 2 1 4 4 5 9 11 14 19 23 25 24 23 21 19 17 17 18 18 18 18 18 19 19 20 21 20 19 19 20 21 20 20 21 21 21 21 19 16 16 18 20 20 19 17 16 15 13
2 4 2 2 2 2 3 3 2 1 2 4 3 3 3 5 3 2 1 6 6 3 1 2 3 2 2 3 3 5 7 7 7 6 6 7 6 3 3 5 4 2 3 6 10 11 13 18 20 20 21 20 19 17 16 16 17 16 15 16 17 18 19 19 19 19 19 20 20 20 21 22 23 21 20 19 20 20 19 19 18 17 16 16 15 14 13
2 4 3 1 2 3 4 5 5 3 2 4 2 4 4 5 4 2 2 5 6 3 1 3 3 3 2 1 2 2 5 6 5 5 5 6 7 6 7 8 4 2 4 3 4 5 9 15 16 14 15 16 14 12 14 17 18 18 18 18 19 20 20 18 18 19 19 18 16 16 21 25 23 19 17 17 17 18 18 18 16 14 14 14 14 13 13
2 4 2 1 3 2 3 4 5 4 2 2 6 4 5 5 4 3 3 4 3 2 1 2 3 3 0 2 2 2 5 6 6 5 5 7 8 8 9 8 5 3 6 6 5 5 2 6 10 12 15 15 13 12 13 15 16 16 18 19 20 21 21 19 20 20 20 18 18 19 23 23 17 14 15 15 15 15 15 16 15 15 15 15 15 13 12
2 3 2 1 3 3 3 4 5 4 0 4 4 2 5 3 3 4 3 1 1 1 0 1 2 0 1 1 3 4 5 6 6 7 8 9 10 10 10 9 8 7 9 11 11 10 8 4 5 11 16 15 12 11 10 10 10 11 14 16 17 19 20 20 19 19 17 15 16 19 20 19 15 14 16 17 18 18 17 17 17 17 16 16 15 14 12
2 2 2 1 3 3 3 3 5 2 2 2 3 4 3 2 3 4 4 2 1 1 1 1 1 2 3 5 5 5 5 5 5 6 8 10 11 12 12 12 11 10 11 14 15 13 10 8 7 8 12 13 12 11 12 11 10 11 13 15 17 17 18 18 17 15 14 14 15 18 20 19 16 15 16 17 20 21 21 21 21 19 18 17 17 16 15
2 3 3 1 2 4 2 3 2 0 2 2 3 2 1 1 2 4 3 2 1 1 1 2 4 4 5 5 5 5 5 5 5 7 8 9 10 12 13 13 12 12 13 15 16 16 14 12 9 8 11 14 15 14 13 12 11 12 14 16 16 16 16 15 14 14 14 15 16 15 14 13 13 13 13 14 17 20 22 23 23 22 21 20 19 18 16
3 3 2 3 4 4 2 1 1 2 2 2 2 1 2 2 2 3 2 0 1 2 3 4 5 5 5 5 4 5 5 4 5 7 9 10 11 12 13 13 12 13 14 16 17 17 17 15 12 11 13 15 16 14 13 11 11 12 13 14 15 15 14 12 11 11 11 11 11 10 9 10 11 11 11 13 16 19 22 24 23 22 21 20 19 19 17
2 4 5 5 4 4 3 1 3 3 3 1 2 3 1 2 2 1 1 0 1 2 4 5 4 4 4 5 5 4 4 4 5 7 8 10 11 11 12 12 12 13 14 16 17 18 18 17 15 14 15 16 15 13 11 10 11 12 12 11 12 13 12 11 10 9 10 10 10 9 10 11 12 13 14 16 17 19 21 23 23 22 20 19 18 18 18
1 2 2 2 3 4 4 2 2 1 2 3 2 3 3 1 1 1 2 2 2 3 5 5 4 4 4 5 5 4 4 5 6 8 9 9 10 10 11 11 11 12 14 15 17 19 19 18 17 16 16 16 15 13 11 10 11 12 13 13 14 14 15 15 14 14 15 15 14 13 13 13 13 13 14 15 16 17 18 19 20 20 19 18 17 16 17
1 0 3 3 3 4 5 4 2 2 3 3 3 3 2 1 2 2 2 3 4 5 5 5 5 5 5 6 5 4 4 4 5 7 8 7 8 8 9 9 10 11 13 15 16 18 19 18 18 18 17 17 15 13 12 10 11 13 15 15 15 15 16 16 17 17 18 18 17 17 16 15 15 15 14 14 15 15 15 16 17 17 17 16 15 15 15
2 3 5 4 4 5 4 3 2 1 2 3 4 3 3 3 4 3 3 5 5 4 5 6 5 4 5 6 5 4 4 4 4 6 7 7 7 7 6 6 8 9 12 14 15 16 16 16 16 17 17 17 15 14 12 11 11 14 15 16 16 15 15 15 15 16 17 17 17 17 16 14 14 14 13 13 13 13 13 14 14 13 14 14 13 13 14
1 3 4 2 3 5 5 4 3 1 1 2 4 4 4 5 6 5 6 6 6 7 7 6 5 5 5 5 5 4 3 3 5 6 7 7 7 7 6 5 6 7 9 10 12 13 13 13 13 15 15 15 14 13 13 12 13 15 15 14 14 14 13 13 13 13 13 13 13 14 13 13 13 12 11 10 10 10 11 11 10 10 11 12 12 11 11
1 4 4 3 2 1 4 5 3 2 2 3 5 5 5 5 6 6 7 8 9 9 8 7 7 6 5 5 5 4 3 4 5 6 7 8 7 7 7 6 6 6 7 7 8 10 10 9 10 11 12 12 11 11 11 11 12 13 13 12 13 12 11 11 10 9 9 9 9 10 10 11 11 11 11 9 8 8 9 8 8 8 8 9 9 8 8
4 5 5 5 4 2 4 3 2 3 3 4 5 5 4 4 4 6 8 8 8 7 6 7 9 7 5 7 8 6 4 5 6 5 6 7 7 7 6 6 6 6 6 6 7 8 8 8 8 8 8 8 8 8 8 8 9 9 9 10 10 10 8 8 7 6 6 7 8 9 10 10 10 11 12 11 10 9 9 8 7 6 6 7 7 6 6
2 3 5 5 3 2 2 1 2 3 3 5 4 4 5 4 4 6 7 7 8 7 5 6 10 10 9 9 9 8 6 5 6 5 5 6 6 5 5 5 5 6 6 6 7 7 7 7 7 7 7 7 6 5 5 5 6 6 6 7 8 7 6 6 5 5 5 6 7 8 10 11 11 11 12 13 12 11 9 9 8 7 7 6 6 5 4
2 3 5 4 3 3 3 3 3 4 4 5 4 4 5 6 7 9 8 7 8 9 7 7 8 10 11 10 10 10 9 6 6 6 6 5 5 4 3 4 4 4 5 5 5 5 6 6 6 5 5 6 5 4 4 3 4 5 5 5 5 5 5 5 6 6 6 6 6 7 8 9 9 9 10 11 10 10 9 8 7 7 6 7 7 6 5
4 6 6 5 5 4 3 3 3 3 4 6 6 5 7 10 12 13 12 10 11 12 11 10 10 10 11 11 10 10 10 8 6 6 6 5 3 2 2 2 2 3 3 3 3 4 4 4 4 4 3 3 3 3 3 3 3 3 3 3 3 2 2 3 4 4 4 4 5 6 7 7 7 7 8 8 8 9 9 9 8 7 7 7 7 7 7
7 8 8 7 4 2 1 2 2 2 5 10 9 8 11 15 16 16 16 15 15 16 14 13 13 13 12 12 11 11 10 9 7 6 6 5 4 4 3 3 3 2 2 2 2 2 2 2 3 3 3 3 3 2 2 2 2 2 1 2 2 1 0 1 2 3 3 3 4 5 5 5 6 6 6 6 7 7 7 8 10 10 10 9 9 8 8
6 4 4 5 5 4 2 4 6 6 7 11 12 12 14 15 14 13 12 11 13 16 16 15 15 15 13 12 13 13 12 11 10 9 8 7 7 6 5 4 3 2 2 2 2 1 1 1 2 2 3 3 3 3 3 3 3 2 2 3 3 2 1 1 2 2 2 2 3 4 5 5 5 5 5 6 6 6 6 7 10 12 12 11 11 9 8
4 3 4 5 7 7 7 8 8 7 7 9 11 13 13 12 10 8 6 7 10 12 13 15 17 17 15 14 15 15 14 13 12 10 9 8 8 8 8 6 4 2 2 3 2 2 2 2 2 3 3 2 3 3 3 3 3 3 3 3 4 3 3 2 2 2 3 3 4 4 5 5 6 6 5 5 6 6 7 8 10 11 11 11 11 10 9
3 5 7 7 7 8 9 8 7 6 6 7 8 9 10 11 10 7 5 8 10 10 11 15 18 19 18 18 18 17 17 16 16 15 13 11 10 10 9 8 6 5 5 5 5 5 5 5 5 4 4 2 3 3 4 3 3 3 2 2 2 2 3 3 3 4 4 4 5 5 5 5 6 6 6 6 6 8 8 9 9 10 10 11 11 10 9
5 7 8 8 7 8 8 7 6 5 5 6 7 7 8 10 10 7 5 7 9 10 13 17 18 17 18 18 19 20 21 20 20 19 19 17 15 13 12 11 10 9 9 8 6 6 6 7 7 7 6 4 4 4 4 3 3 4 4 3 3 3 4 4 4 4 5 5 6 6 6 6 6 6 6 6 6 7 8 9 10 10 10 11 12 12 11
9 8 8 7 6 7 7 5 6 6 5 5 7 7 7 9 9 8 6 7 9 12 15 16 15 15 16 18 19 21 21 21 21 20 20 19 18 16 15 14 13 12 12 11 10 9 8 8 8 7 7 6 6 5 5 5 5 5 5 5 5 5 5 6 5 5 5 6 7 7 8 8 7 7 7 7 7 7 7 8 9 10 10 11 12 13 14
11 7 5 5 6 7 6 4 5 6 5 4 6 7 8 10 11 10 9 11 13 15 15 15 14 15 16 17 17 17 18 19 19 19 19 18 17 16 15 14 13 13 12 12 11 10 10 10 10 8 7 7 7 6 6 7 7 8 7 7 6 6 6 7 6 6 6 7 7 8 8 9 9 9 8 9 9 9 9 9 10 10 11 10 11 11 13
12 10 11 11 10 10 9 7 5 6 5 5 6 9 10 12 13 13 13 14 14 14 14 15 16 16 17 16 16 16 16 15 15 15 16 16 15 14 13 12 11 11 11 10 10 10 10 9 9 8 8 7 7 7 6 6 7 9 10 10 9 8 8 7 7 7 7 7 8 8 9 10 11 10 10 11 11 12 12 12 12 12 12 11 11 11 12
9 8 10 10 9 11 13 12 9 8 8 6 6 8 11 13 14 14 15 15 15 15 16 17 16 16 16 16 16 16 16 14 12 12 13 13 12 11 10 9 9 9 9 9 9 9 8 7 7 6 6 6 6 7 7 6 7 8 9 10 10 10 9 8 8 8 8 8 9 10 11 12 12 12 11 11 10 11 12 13 13 13 12 12 12 12 12
10 9 7 7 9 13 15 15 13 13 12 11 10 10 12 14 15 16 17 17 17 16 16 15 15 15 15 15 14 14 13 11 10 10 10 10 9 9 9 8 8 8 8 8 8 8 7 6 5 5 5 5 5 6 6 6 7 8 8 9 9 9 9 9 9 9 9 10 10 11 11 12 13 13 13 12 11 10 11 12 12 13 13 12 12 13 13
12 13 10 10 12 15 15 15 17 18 16 14 14 15 15 16 17 19 19 18 17 16 14 14 14 14 13 12 11 10 10 9 8 8 8 8 8 8 7 7 7 7 6 6 6 6 6 5 5 5 5 5 5 5 5 6 7 7 8 9 9 9 9 10 10 11 12 12 12 12 13 14 15 15 15 15 14 13 12 12 12 13 13 13 13 13 13
12 15 15 15 16 17 15 15 19 21 20 17 15 16 19 20 20 19 19 17 16 14 13 13 13 12 11 9 8 7 7 6 6 6 7 7 8 8 8 7 7 7 6 5 5 4 4 4 5 5 5 5 5 6 7 7 8 8 8 9 9 9 10 10 11 11 12 13 14 14 15 16 16 17 17 17 16 16 16 15 14 14 15 15 15 14 14
11 13 15 17 17 18 17 17 17 20 22 21 18 17 20 21 20 19 18 16 14 12 12 12 11 9 8 7 6 5 5 4 5 6 6 6 8 9 8 7 6 7 7 6 4 3 4 4 5 5 5 5 5 5 6 7 7 8 8 9 9 10 11 11 11 11 12 12 13 14 14 15 15 16 17 18 18 17 17 17 16 16 17 17 17 17 17
10 13 16 17 17 18 18 18 17 18 21 24 23 21 20 20 19 18 17 15 12 10 9 9 8 7 6 5 4 4 3 3 4 5 5 6 7 7 7 6 6 8 9 7 3 2 4 6 7 7 7 7 6 6 7 7 7 7 7 7 8 9 9 10 11 11 12 13 13 14 14 14 14 15 16 17 17 17 17 17 18 18 19 19 19 19 20
12 15 17 17 17 18 19 19 19 19 21 23 23 21 20 18 17 16 14 12 10 8 7 6 5 5 5 4 3 3 3 4 4 5 5 5 5 5 5 6 6 7 7 5 2 1 3 6 7 7 8 8 8 9 9 9 9 9 9 9 9 8 9 9 10 11 12 13 14 15 15 15 15 15 15 16 17 18 18 19 20 20 21 21 21 22 23
15 18 18 18 17 19 21 21 21 20 19 20 20 19 16 14 13 13 11 9 8 6 5 5 4 3 3 2 3 3 4 4 5 4 4 4 4 4 4 5 6 5 5 4 3 3 4 5 6 6 7 8 9 10 10 10 10 11 11 11 11 11 11 12 12 13 13 14 15 16 16 16 16 17 17 18 19 20 20 21 21 21 22 22 23 24 25
19 20 19 18 19 20 22 22 21 20 19 18 18 16 14 11 10 10 9 8 7 6 5 4 3 2 2 2 2 3 3 4 3 3 3 4 5 4 4 4 5 5 4 4 4 4 5 5 5 6 7 8 9 10 10 10 11 11 12 13 13 14 14 14 15 15 15 15 16 16 16 16 17 18 18 19 20 21 21 21 21 22 23 25 25 25 25
21 22 21 21 21 21 22 21 20 19 19 17 16 14 11 10 9 8 8 7 6 5 4 4 3 2 2 2 2 3 3 3 3 4 5 5 4 3 3 4 5 5 5 6 6 6 6 6 6 7 8 9 10 11 11 12 12 13 14 15 15 15 16 16 16 16 17 17 17 17 17 17 17 18 19 20 21 21 21 21 21 22 24 25 24 23 23
22 22 24 24 23 22 22 21 20 20 19 17 15 12 11 9 8 7 6 6 5 5 4 3 2 1 2 2 3 3 4 3 4 5 5 5 4 3 4 5 6 7 8 8 9 9 9 9 9 10 10 11 12 12 12 12 12 13 14 15 15 16 16 16 17 17 17 17 17 17 17 17 17 17 17 18 19 20 20 20 20 21 22 23 22 22 22
21 23 25 25 23 22 23 23 21 21 20 18 14 12 11 10 9 7 6 5 5 4 3 2 2 2 2 3 3 3 3 3 4 4 4 4 3 4 5 6 7 8 9 10 11 11 10 10 10 10 10 10 10 9 9 9 10 10 11 12 12 13 13 13 14 15 15 15 15 15 14 14 14 14 14 15 17 18 19 19 19 20 21 21 21 22 23
22 22 23 23 22 22 23 23 22 21 19 16 13 12 11 10 9 8 7 6 5 5 5 5 5 5 4 3 2 1 2 3 3 2 3 4 5 6 8 9 9 9 10 10 10 9 8 7 7 7 6 6 6 6 6 7 7 7 8 8 8 9 9 10 10 11 12 12 12 11 10 10 10 11 12 13 15 16 17 18 19 20 20 21 21 22 23
23 22 22 23 24 24 24 23 21 19 17 16 15 14 13 11 11 10 9 8 8 8 8 7 6 5 3 2 1 2 2 2 2 1 3 5 7 8 9 9 8 8 8 7 6 6 6 6 6 6 5 5 6 6 6 7 8 8 9 9 10 10 10 9 8 8 8 8 8 7 7 7 8 9 11 12 13 14 15 16 17 18 18 18 18 21 23
24 24 23 24 24 24 23 21 18 17 17 17 17 16 14 13 13 12 12 11 11 11 9 8 6 4 2 2 2 2 3 3 3 2 3 5 6 7 7 6 6 6 6 6 6 7 7 7 7 7 7 8 8 8 9 9 10 10 11 11 12 13 13 11 10 8 7 7 7 6 7 7 8 8 9 9 9 10 11 12 14 15 16 16 19 21 21
23 23 22 22 23 24 23 21 18 18 19 19 18 17 16 15 15 14 13 13 13 11 9 7 5 3 2 2 2 3 3 3 3 4 4 4 5 6 6 6 6 7 7 8 8 9 9 9 9 9 9 9 9 10 10 10 10 10 11 12 13 14 14 12 10 7 6 5 5 5 5 4 4 4 3 3 4 6 7 8 11 14 16 17 18 18 17
24 23 23 24 26 27 26 24 22 22 21 20 19 19 18 16 15 15 15 15 14 12 10 8 5 3 3 3 3 3 3 4 4 4 5 5 6 7 7 7 8 8 8 9 9 10 10 11 11 11 10 10 10 10 10 10 9 9 9 10 12 14 15 14 11 7 5 5 5 5 4 3 3 3 4 5 8 9 10 10 11 13 13 12 12 13 13
25 25 25 24 24 24 23 22 22 22 22 20 20 20 19 17 15 15 16 16 14 12 10 8 6 5 4 4 3 3 4 4 5 6 6 6 6 6 6 6 7 8 8 9 9 10 10 11 11 11 11 10 10 10 9 9 9 8 7 7 8 9 11 13 13 11 9 8 7 6 6 6 6 6 7 8 9 9 8 7 8 9 9 9 10 11 11
Wind_Direction
12 7 359 3 40 82 58 37 20 14 24 39 58 53 318 351 140 229 289 21 54 339 330 358 4 34 58 57 61 82 116 123 127 134 137 147 132 83 76 116 141 161 166 152 152 160 165 170 176 180 184 188 190 190 192 196 203 207 206 205 207 217 227 228 226 225 227 228 230 232 235 237 238 239 239 240 243 249 254 254 253 253 253 253 252 251 249
20 357 35 71 89 67 48 41 27 26 40 46 50 29 353 28 125 199 332 74 63 9 345 26 38 64 68 61 64 75 99 119 136 143 143 159 162 157 203 218 177 165 163 126 129 150 165 172 175 177 186 193 194 195 196 198 201 206 209 207 205 209 220 229 232 229 228 228 229 231 234 237 239 239 238 238 241 247 252 253 253 253 252 252 253 251 247
350 313 326 74 86 92 65 42 27 27 41 43 38 26 10 18 36 358 40 74 57 24 52 65 62 68 67 63 62 64 83 120 148 160 157 161 165 170 198 217 208 178 164 154 159 166 173 180 177 180 192 197 196 198 200 199 200 204 208 207 207 211 215 221 229 232 230 228 228 230 233 236 238 238 237 238 240 244 249 251 251 250 249 252 252 248 246
285 306 323 342 24 71 51 30 19 14 26 37 32 32 33 19 337 340 37 71 29 2 65 76 72 70 68 67 63 58 61 85 125 154 146 129 150 161 171 195 208 189 172 173 173 166 173 198 197 194 201 201 197 201 205 205 205 206 209 209 211 217 218 217 224 233 234 231 229 229 231 233 236 238 237 237 239 242 246 249 250 249 249 250 248 246 245
218 278 313 332 24 37 6 354 360 11 40 63 42 35 30 16 350 346 58 98 226 27 84 93 88 79 75 69 64 61 56 63 85 106 90 63 62 165 164 177 199 197 181 177 176 177 188 200 202 204 213 213 207 208 209 210 211 210 210 211 214 219 220 216 219 228 235 235 232 231 231 232 234 236 235 235 237 241 245 248 249 250 250 248 245 244 244
210 267 311 335 27 31 269 260 256 152 108 102 86 49 6 0 22 70 93 106 114 100 97 105 98 84 75 65 56 51 47 49 66 85 93 89 307 94 88 68 42 343 193 184 186 191 196 200 203 207 216 218 213 213 210 207 207 205 204 210 215 218 219 216 214 217 226 237 239 235 231 231 233 233 233 234 236 239 242 244 244 245 245 244 241 239 239
178 274 15 247 251 238 232 263 328 127 121 111 99 75 8 360 22 50 76 88 102 111 115 116 109 97 87 79 67 56 57 62 67 70 75 118 250 52 60 50 15 308 222 201 200 200 197 198 202 208 216 217 211 208 204 199 198 200 204 213 219 220 220 219 216 215 220 231 242 241 231 227 226 224 223 226 231 237 238 238 239 240 238 238 236 233 233
157 76 103 198 238 255 270 7 43 85 84 79 80 50 358 337 349 34 95 99 91 93 99 112 122 120 103 85 67 51 50 55 71 88 106 153 323 41 75 139 264 322 291 234 217 208 198 195 199 203 209 213 208 201 196 195 198 202 206 212 216 218 221 223 224 222 217 215 228 238 231 221 217 215 215 218 225 238 241 236 233 233 232 230 228 228 230
145 118 120 262 292 297 312 18 52 101 3 303 133 100 290 265 259 260 132 118 94 72 53 357 172 155 94 69 50 41 43 43 53 74 95 99 81 63 111 144 30 1 328 253 225 213 201 196 199 202 204 204 202 195 191 193 198 200 201 204 208 215 220 221 222 222 215 208 215 227 229 223 217 216 218 221 223 231 238 234 226 224 223 221 220 222 224
97 96 65 10 353 264 241 256 271 232 245 250 183 133 283 265 243 268 168 134 127 137 233 305 324 333 35 47 21 33 50 54 56 56 51 64 73 54 39 57 52 355 290 250 232 220 205 200 200 199 198 199 199 192 185 187 194 199 204 210 217 222 223 219 215 214 214 213 215 220 224 224 220 215 214 217 219 220 222 222 217 211 209 207 207 208 206
92 105 110 147 197 237 237 242 268 296 265 244 125 75 313 264 203 206 200 160 149 156 252 325 7 42 40 321 284 34 61 60 60 61 53 58 61 43 37 51 58 330 324 303 255 221 206 207 203 193 194 203 207 198 186 182 184 190 198 209 220 223 219 211 207 207 210 213 214 219 227 228 223 214 208 208 210 209 207 208 206 197 195 193 188 183 183
114 110 110 203 215 240 241 242 280 306 263 136 83 54 288 251 181 169 183 178 168 158 289 347 46 78 303 253 222 106 81 73 68 66 61 58 57 47 41 46 44 14 15 26 39 53 89 203 199 189 196 206 206 199 194 188 184 187 196 208 217 219 214 207 205 208 210 213 218 225 231 231 223 215 214 209 203 201 202 203 199 188 184 183 175 166 165
108 111 122 245 254 246 239 257 289 300 286 93 89 199 240 215 158 155 138 103 22 35 31 22 59 132 237 156 122 96 81 79 74 69 67 66 61 55 52 54 55 49 47 52 57 55 53 70 152 172 182 185 179 175 178 182 185 190 200 210 212 210 207 202 201 206 211 215 219 223 228 231 228 229 230 222 212 209 207 200 190 181 174 171 161 148 142
95 113 116 321 277 242 231 273 291 292 125 137 202 229 231 152 139 141 126 109 27 2 10 91 139 144 112 101 99 92 89 87 76 64 64 67 64 59 59 59 59 57 55 58 61 61 63 75 98 134 149 146 139 142 150 162 176 184 191 198 201 199 198 196 196 198 201 202 206 212 221 226 222 218 217 211 206 205 200 189 179 173 167 160 149 135 125
114 82 78 73 238 234 259 316 320 106 140 201 223 249 359 54 114 118 122 151 169 134 84 106 124 121 107 103 103 95 86 83 82 76 71 68 64 61 61 59 59 60 57 56 57 58 65 80 92 109 123 121 118 124 134 148 163 169 173 179 182 183 185 186 187 187 186 185 184 189 200 208 204 200 199 195 190 186 181 173 165 158 153 149 141 131 122
123 112 158 201 216 238 273 325 184 205 240 222 174 128 3 15 69 100 104 91 188 155 128 116 122 123 110 99 95 87 79 75 79 78 76 74 69 64 63 63 65 66 62 58 58 58 62 75 87 101 112 113 111 113 117 123 130 136 144 151 153 155 159 160 161 164 167 167 164 162 170 183 185 180 173 168 163 159 156 151 145 139 137 136 132 126 120
158 181 212 229 242 261 274 228 214 248 296 333 127 130 82 33 41 93 110 122 203 136 121 118 114 105 95 82 72 70 71 68 70 71 72 78 80 77 73 74 76 74 70 66 63 60 62 71 80 90 101 105 100 97 106 118 121 122 127 130 130 133 134 129 126 129 129 125 127 135 155 169 167 156 149 146 143 140 139 139 137 134 133 133 129 124 123
248 224 246 280 304 304 311 308 260 281 351 5 66 92 89 87 142 155 151 161 146 108 109 117 103 86 88 82 70 73 76 66 72 79 75 75 84 87 85 86 87 86 81 75 70 65 65 72 79 83 88 92 90 92 104 117 117 114 115 114 113 114 114 113 114 116 114 114 118 123 132 140 140 137 139 140 137 135 135 135 135 135 135 134 131 128 128
82 268 283 306 317 300 304 317 326 23 37 28 49 72 85 127 138 137 124 118 112 99 100 109 106 101 104 98 84 83 86 76 78 85 82 78 82 84 86 91 96 97 90 82 76 72 70 73 80 82 84 87 90 94 102 107 109 107 107 105 106 107 107 108 111 113 112 114 115 116 117 121 121 122 127 131 131 131 134 134 134 135 137 138 137 135 131
132 222 254 284 306 294 294 302 296 337 38 33 41 61 81 94 93 87 89 101 110 103 91 94 98 93 94 100 100 96 96 99 100 100 103 103 96 88 88 93 96 97 92 87 83 80 76 78 83 85 85 87 89 92 98 107 112 108 103 101 102 102 104 105 107 109 112 115 116 114 114 116 116 117 120 124 126 127 132 137 140 143 148 151 150 146 140
41 248 248 284 329 318 316 312 291 285 63 63 57 62 76 88 88 79 75 81 90 98 106 119 120 100 85 91 99 102 103 106 109 113 116 112 104 96 89 83 84 87 86 86 87 84 82 85 88 88 87 88 89 91 99 109 112 107 102 101 102 100 100 101 104 108 112 114 114 114 114 114 114 113 116 121 126 131 138 147 152 155 161 165 163 159 154
289 236 206 165 141 267 280 284 299 334 56 78 76 70 72 83 95 98 91 82 79 87 107 134 130 110 104 114 115 107 100 106 116 124 119 109 104 102 97 87 82 80 77 77 84 85 83 86 90 91 89 89 88 89 95 104 110 109 108 107 105 101 97 95 96 101 111 117 118 116 115 116 114 111 112 114 119 127 138 151 162 168 175 180 182 178 170
229 223 190 159 143 188 241 263 329 7 41 71 80 84 84 88 101 112 107 99 90 82 87 109 118 118 126 136 128 109 96 117 132 127 113 106 104 102 100 96 86 79 75 75 80 83 81 80 86 90 90 90 90 90 90 97 104 109 114 117 114 110 108 104 97 91 101 119 128 125 122 122 119 117 115 112 108 110 116 124 135 149 164 177 188 195 192
220 202 172 159 144 149 183 167 43 36 66 85 85 85 89 90 95 101 102 103 108 107 83 85 110 124 131 133 131 120 111 126 135 119 104 109 112 107 102 97 89 84 82 78 77 79 78 76 79 85 87 87 88 88 89 94 100 104 111 123 129 133 135 132 129 121 113 117 125 128 126 125 126 127 125 119 113 110 112 117 123 131 138 146 154 161 164
99 140 153 149 131 120 118 104 77 55 72 96 99 89 94 96 92 93 94 91 101 111 104 83 98 119 125 122 123 124 121 127 134 126 118 119 122 122 116 106 100 97 92 86 80 77 74 70 70 75 81 81 79 79 80 85 99 106 106 111 124 137 144 145 147 148 143 135 135 137 135 134 136 138 137 136 131 125 124 126 128 133 139 141 142 144 141
127 127 112 90 77 78 82 87 70 33 57 90 94 81 87 93 89 86 85 82 84 93 97 93 94 108 119 120 120 121 118 117 120 121 116 111 105 95 89 83 83 90 94 90 79 69 64 62 62 62 66 64 59 61 62 57 70 99 105 95 89 103 146 167 164 157 155 155 156 153 149 150 151 149 149 154 154 149 145 144 142 142 144 142 141 140 136
140 129 109 95 84 55 25 118 125 97 83 92 93 87 87 92 92 86 81 78 77 78 83 91 97 99 103 109 112 111 107 105 102 98 91 78 51 26 21 22 29 45 55 62 74 76 63 54 51 42 31 14 5 10 21 20 22 41 58 40 28 27 22 206 194 178 166 167 173 174 171 170 171 167 165 168 169 167 165 162 157 154 151 146 142 139 133
143 123 105 130 157 175 160 115 110 102 90 93 100 101 94 87 83 80 75 71 73 73 72 79 89 90 87 92 98 96 91 88 88 86 81 69 51 35 23 14 11 12 16 25 43 59 41 24 12 11 8 354 344 349 352 357 5 11 3 353 347 333 292 239 221 217 211 202 198 196 191 184 182 180 178 178 180 180 178 174 167 162 159 156 153 149 144
124 81 77 114 136 133 116 102 94 86 83 92 97 98 96 89 77 69 67 69 73 72 67 70 78 81 81 85 87 84 78 73 72 76 78 72 60 49 40 33 25 358 348 355 348 336 341 343 347 10 22 2 341 341 336 333 349 1 359 358 354 338 316 303 284 267 259 240 219 213 207 198 191 191 191 194 199 200 195 189 184 179 176 172 169 166 164
96 99 104 106 111 113 111 108 105 98 94 95 89 84 91 96 89 78 72 75 77 77 74 74 76 77 77 79 81 81 80 77 72 72 73 72 67 61 52 45 38 22 4 353 343 336 334 330 335 356 12 356 334 337 333 321 316 315 314 329 335 316 298 294 290 280 270 253 235 227 224 218 214 217 220 222 224 224 222 215 208 203 199 195 193 194 192
95 97 108 110 111 113 112 112 113 109 101 101 100 95 95 98 98 95 89 81 81 84 82 78 76 76 79 83 85 86 85 80 74 71 70 68 67 65 61 58 58 51 39 28 18 6 352 343 341 344 344 335 318 309 309 307 300 297 296 296 292 284 277 275 274 269 262 254 244 236 232 231 231 230 230 231 231 231 229 226 225 225 223 220 219 221 216
97 86 91 96 99 106 113 119 120 117 115 117 117 114 112 113 113 111 106 98 93 89 85 81 80 83 87 90 90 88 85 80 74 70 66 63 62 62 62 63 65 63 58 52 49 44 36 26 17 6 354 347 335 316 300 287 281 285 291 290 284 280 278 276 274 269 262 256 252 248 243 241 240 238 237 237 235 233 230 228 226 229 231 231 234 234 228
117 110 111 120 117 117 126 139 134 128 128 125 122 119 116 116 116 115 112 107 98 92 88 88 88 90 91 91 89 87 84 78 70 64 61 59 58 58 61 64 66 64 61 58 55 54 49 43 37 32 23 11 360 344 324 300 286 281 282 286 287 286 282 280 278 271 263 258 256 255 252 249 250 252 254 254 249 243 238 233 229 229 232 236 240 239 230
153 163 169 169 162 152 154 159 149 132 119 106 112 119 117 116 116 116 113 106 98 94 95 95 93 90 88 85 82 80 79 75 68 60 57 55 53 52 54 60 64 65 62 57 53 51 46 39 36 37 35 28 20 11 357 333 310 294 287 285 287 287 286 287 286 280 274 269 264 257 251 248 249 253 258 261 257 250 244 239 235 233 234 235 237 236 229
147 144 154 162 158 150 149 150 149 145 136 124 121 123 121 119 118 115 111 108 105 105 103 99 93 89 85 82 79 77 77 78 74 66 58 53 47 42 39 41 47 52 53 50 46 43 37 31 27 24 23 25 25 20 13 360 339 322 307 299 296 293 287 283 282 285 286 283 275 266 257 254 255 258 262 262 256 247 241 238 236 234 233 233 233 233 229
130 121 124 130 131 136 141 143 144 144 138 134 134 131 125 122 120 116 114 114 113 111 107 101 95 89 85 83 82 80 79 77 71 61 54 48 40 32 26 25 29 33 37 39 39 35 30 24 20 13 7 9 16 16 11 2 351 339 328 320 313 306 295 286 284 286 286 284 279 276 273 271 271 271 270 266 258 248 242 240 238 234 232 231 231 230 226
142 140 134 128 130 135 138 141 142 139 132 129 133 131 125 123 121 120 119 118 115 112 108 101 96 94 91 90 88 85 80 74 63 56 49 42 34 26 20 20 19 15 17 24 29 27 21 15 11 5 356 349 348 349 346 341 336 333 331 328 324 317 307 300 295 291 287 284 282 281 282 283 282 279 276 271 265 259 254 251 246 239 234 232 231 229 224
134 137 136 136 135 133 132 137 141 138 130 125 126 126 126 126 124 121 120 118 114 111 105 99 98 101 101 98 93 86 78 67 56 50 45 38 32 25 20 16 10 4 3 2 1 8 17 14 7 0 352 342 334 324 318 313 310 309 311 313 314 315 314 310 305 300 296 293 290 289 289 286 282 277 273 270 269 267 263 258 252 244 238 236 233 229 222
122 128 132 133 130 127 126 129 135 135 131 128 126 127 129 129 126 122 120 118 114 109 105 103 104 105 104 101 96 90 79 58 38 33 32 28 23 19 18 21 25 23 14 358 345 8 29 22 9 2 359 355 347 335 328 323 318 311 306 303 303 305 306 306 306 304 300 296 294 293 292 289 284 278 272 267 264 263 260 255 250 245 241 238 234 229 221
128 132 133 131 129 128 127 127 129 131 133 133 133 134 134 133 129 125 124 122 117 110 104 103 104 104 103 101 93 81 69 42 22 19 18 14 13 14 16 21 28 25 16 7 10 48 32 14 7 5 2 358 352 344 338 333 329 324 319 311 307 303 300 299 301 299 296 295 294 291 290 289 286 282 277 269 262 257 255 253 249 243 239 235 231 226 219
134 137 135 133 133 133 131 129 130 132 134 136 137 138 139 137 132 127 124 121 116 107 97 96 99 100 97 89 69 50 38 25 17 14 10 8 9 10 5 3 6 7 5 2 1 352 347 349 352 353 353 350 347 343 338 331 324 320 316 311 308 305 300 296 296 294 293 294 294 292 291 289 285 280 276 271 265 263 263 261 253 243 237 234 229 223 216
136 136 134 132 133 133 132 132 132 133 136 140 140 139 138 135 129 126 123 120 117 112 107 104 103 98 84 63 38 30 28 24 21 21 17 12 9 1 349 349 354 355 351 343 318 288 295 314 325 332 338 339 336 335 333 328 321 317 313 309 307 305 302 300 298 296 296 296 296 294 294 291 286 282 277 271 267 266 266 263 255 244 236 232 227 221 216
142 139 135 134 136 136 135 134 133 133 137 140 140 137 136 134 131 129 129 130 132 136 140 142 141 125 97 79 57 44 36 27 20 10 353 347 356 7 3 355 355 353 343 333 323 306 300 303 307 310 315 318 317 317 316 311 306 304 303 302 301 301 300 299 298 296 296 297 297 296 296 295 292 288 284 279 275 272 267 261 254 245 236 229 224 219 214
144 141 138 138 140 138 136 135 134 133 136 139 140 139 139 139 138 138 141 147 157 163 165 167 164 138 101 84 66 55 45 25 7 355 342 335 344 6 6 349 344 345 338 331 328 323 314 308 304 300 299 300 302 302 300 296 294 294 295 296 297 297 296 295 295 294 295 295 294 293 294 294 293 291 289 286 284 280 274 267 258 247 235 227 221 217 214
145 144 143 141 141 140 140 140 140 140 141 142 144 146 146 146 148 151 156 165 171 171 166 161 153 117 86 75 71 68 57 32 10 2 354 343 339 342 336 327 327 331 329 325 323 321 316 310 304 300 298 298 298 297 295 293 293 294 295 296 296 296 295 293 293 292 292 293 293 293 292 291 290 290 289 287 283 280 277 271 259 243 231 222 218 217 216
145 145 144 143 143 146 147 147 147 147 146 144 145 149 154 157 158 159 163 165 165 163 164 166 148 127 113 99 89 79 56 28 12 6 1 353 342 334 331 329 328 326 324 322 322 323 321 316 312 309 307 305 305 305 305 305 305 306 306 307 306 304 302 299 295 292 290 289 288 288 288 288 289 288 287 285 282 279 274 266 254 242 234 227 222 219 215
143 144 146 146 146 148 150 149 148 147 145 145 149 156 161 162 161 161 162 163 162 159 157 150 139 129 116 93 66 36 6 5 8 4 358 354 343 332 330 331 331 329 327 327 330 333 333 332 331 331 329 327 328 330 332 334 334 333 332 331 329 327 322 315 306 298 290 284 280 277 278 283 287 289 288 286 282 276 269 261 253 245 238 230 221 213 205
147 148 149 149 149 149 150 150 149 148 151 156 160 162 162 161 162 162 161 159 156 153 149 143 134 124 108 76 39 15 12 20 43 33 356 344 337 334 335 337 338 338 337 341 350 357 1 3 5 7 9 7 6 7 9 8 7 4 2 1 358 354 348 340 328 314 303 294 289 288 289 290 290 289 287 283 277 271 263 256 248 241 233 221 206 196 188
151 151 150 150 150 151 152 151 151 156 162 166 165 163 162 161 160 161 162 160 157 154 150 143 134 124 110 92 80 66 54 56 68 61 18 355 351 355 360 3 5 9 12 17 19 18 17 18 20 22 25 26 25 23 22 21 18 14 12 10 9 7 4 360 354 345 335 325 317 312 308 302 297 291 284 276 267 259 253 246 237 226 212 193 178 172 171
150 149 151 154 156 158 160 161 163 166 169 169 166 163 163 163 161 163 166 166 163 158 154 147 138 126 120 113 102 88 78 71 65 56 43 31 32 38 41 42 44 44 43 41 36 31 30 32 32 31 29 28 25 21 19 19 18 17 16 17 20 22 20 15 8 3 3 3 360 353 345 337 330 320 301 270 233 209 199 194 188 181 174 167 162 161 163
157 159 162 165 167 168 170 173 173 171 171 171 168 166 169 171 171 172 176 176 171 165 162 160 154 143 132 121 107 96 91 82 72 72 74 69 62 61 62 59 56 52 49 43 40 39 40 41 39 32 27 24 23 21 19 16 13 16 25 34 37 38 37 35 35 37 40 38 37 39 42 44 59 94 123 141 149 149 147 152 158 160 160 160 161 162 164
165 167 167 167 169 170 173 176 177 174 172 172 172 172 175 178 177 176 180 184 183 179 174 172 168 159 149 138 122 110 106 98 91 90 88 77 65 66 71 67 58 52 49 47 47 47 47 45 42 36 32 29 27 24 22 19 15 14 22 34 36 35 37 42 47 51 53 53 59 71 78 78 82 97 115 128 135 135 131 136 150 157 159 162 166 168 170